Location: Nicosia
(35.1670°N, 33.3670°E)
Time: 00:05:05
(UTC+02:00)

Envisat - Pass Details

Date: 25 September 2023
Orbit: 762 x 764 km, 98.3° (Epoch: 01 December)

Event Time Altitude Azimuth Distance (km) Brightness Sun altitude
Rises 04:08:50 0° 16° (NNE) 3,236 6.7 -30.2°
Reaches altitude 10° 04:11:11 10° 20° (NNE) 2,306 5.9 -29.8°
Maximum altitude 04:16:13 63° 101° (E) 849 3.3 -28.8°
Enters shadow 04:16:27 62° 117° (ESE) 855 3.3 -28.8°
